User: anonymous   Login
Location: Oshawa
(43.9000°N, 78.8670°W)
Time: 12:43:31
(UTC-05:00)
Language:

Thor Agena Rocket - Orbit

View from above orbital plane
View from above orbital plane
View from above satellite
View from above satellite

Ground track
Ground track

The orbit data is extracted from the following two-line orbital elements,

1 00733U 64002A   14355.89329324  .00000575  00000-0  23093-3 0  4119
2 00733 099.0261 122.6420 0033034 298.6022 171.3149 14.31984620652301
Epoch (UTC): 21 December 2014 21:26:20
Eccentricity: 0.0033034
inclination: 99.0261°
perigee height: 761 km
apogee height: 809 km
right ascension of ascending node: 122.6420°
argument of perigee: 298.6022°
revolutions per day: 14.31984620
mean anomaly at epoch: 171.3149°
orbit number at epoch: 65230

The dashed part of the orbit path shows where the satellite is in the earth's shadow,  

DLR